Tullahoma, TN

7:38 PM CDT on September 26, 2016 (GMT -0500)
Tullahoma Regional-Northern

Weather History for KTHA - January, 2013

Change the Weather History Date:

Wednesday, January 9, 2013

  Actual Average Record
Temperature  
Mean Temperature 52 °F -  
Max Temperature 57 °F 45 °F 57 °F (2013)
Min Temperature 48 °F 26 °F 15 °F (2015)
Degree Days  
Heating Degree Days 12    
Growing Degree Days 2 (Base 50)    
Moisture  
Dew Point 52 °F    
Average Humidity 95    
Maximum Humidity 100    
Minimum Humidity 82    
Precipitation  
Precipitation 0.00 in - - ()
Sea Level Pressure  
Sea Level Pressure 30.36 in    
Wind  
Wind Speed 4 mph (ESE)    
Max Wind Speed 8 mph    
Max Gust Speed -    
Visibility 7 miles    
Events      
Averages and records for this station are not official NWS values.
T = Trace of Precipitation, MM = Missing Value Source: NWS Daily Summary

Daily Weather History Graph

Daily Weather History Graph

Search for Another Location

Airport or City:

Trip Planner

Search our weather history database for the weather conditions in past years. The results will help you decide how hot, cold, wet, or windy it might be!

Date:

Astronomy

Jan. 09, 2013 Rise Set
Actual Time 6:54 AM CST 4:50 PM CST
Civil Twilight 6:26 AM CST 5:18 PM CST
Nautical Twilight 5:55 AM CST 5:49 PM CST
Astronomical Twilight 5:24 AM CST 6:20 PM CST
Moon 4:32 AM CST (1/9) 2:51 PM CST (1/9)
Length of Visible Light 10h 51m
Length of Day
9h 55m
Waning Crescent, 6% of the Moon is Illuminated
Jan 9
Waning Crescent
Jan 11
New
Jan 18
First Quarter
Jan 26
Full
Feb 3
Last Quarter

Hourly Weather History & Observations

Time (CST) Temp. Dew Point Humidity Pressure Visibility Wind Dir Wind Speed Gust Speed Precip Events Conditions
12:15 AM 48.2 °F 42.8 °F 82% 30.30 in 10.0 mi SE 5.8 mph - N/A   Scattered Clouds
12:35 AM 48.2 °F 44.6 °F 87% 30.29 in 10.0 mi SSE 6.9 mph - N/A   Scattered Clouds
12:55 AM 48.2 °F 44.6 °F 87% 30.30 in 10.0 mi SSE 4.6 mph - N/A   Mostly Cloudy
1:15 AM 48.2 °F 44.6 °F 87% 30.30 in 10.0 mi SE 4.6 mph - N/A   Overcast
1:35 AM 48.2 °F 46.4 °F 93% 30.30 in 10.0 mi SE 3.5 mph - N/A   Partly Cloudy
1:55 AM 48.2 °F 46.4 °F 93% 30.30 in 10.0 mi Calm Calm - N/A   Mostly Cloudy
2:15 AM 48.2 °F 46.4 °F 93% 30.30 in 10.0 mi ESE 3.5 mph - N/A   Overcast
2:35 AM 50.0 °F 46.4 °F 87% 30.30 in 10.0 mi Calm Calm - N/A   Mostly Cloudy
2:55 AM 50.0 °F 46.4 °F 87% 30.31 in 10.0 mi SE 5.8 mph - N/A   Overcast
3:15 AM 50.0 °F 46.4 °F 87% 30.30 in 10.0 mi SE 6.9 mph - N/A   Mostly Cloudy
3:35 AM 51.8 °F 46.4 °F 82% 30.30 in 10.0 mi SE 5.8 mph - N/A   Partly Cloudy
3:55 AM 51.8 °F 48.2 °F 88% 30.30 in 10.0 mi SSE 5.8 mph - N/A   Mostly Cloudy
4:15 AM 51.8 °F 48.2 °F 88% 30.31 in 10.0 mi SSE 8.1 mph - N/A   Overcast
4:35 AM 51.8 °F 48.2 °F 88% 30.31 in 9.0 mi SSE 5.8 mph - N/A   Overcast
4:55 AM 51.8 °F 48.2 °F 88% 30.31 in 7.0 mi SSE 5.8 mph - N/A   Mostly Cloudy
5:15 AM 51.8 °F 48.2 °F 88% 30.31 in 6.0 mi SSE 5.8 mph - N/A   Overcast
5:35 AM 51.8 °F 48.2 °F 88% 30.32 in 5.0 mi SSE 5.8 mph - N/A   Mostly Cloudy
5:55 AM 51.8 °F 50.0 °F 94% 30.32 in 5.0 mi SE 6.9 mph - N/A   Overcast
6:15 AM 51.8 °F 50.0 °F 94% 30.33 in 6.0 mi SE 5.8 mph - N/A   Overcast
6:35 AM 51.8 °F 50.0 °F 94% 30.33 in 6.0 mi SSE 4.6 mph - N/A   Overcast
6:55 AM 51.8 °F 50.0 °F 94% 30.34 in 5.0 mi SE 3.5 mph - N/A   Mostly Cloudy
7:15 AM 51.8 °F 50.0 °F 94% 30.35 in 5.0 mi SE 3.5 mph - N/A   Overcast
7:35 AM 51.8 °F 50.0 °F 94% 30.36 in 5.0 mi SE 3.5 mph - N/A   Mostly Cloudy
7:55 AM 51.8 °F 51.8 °F 100% 30.37 in 6.0 mi SSE 5.8 mph - N/A   Mostly Cloudy
8:15 AM 51.8 °F 51.8 °F 100% 30.38 in 4.0 mi SSE 4.6 mph - N/A   Overcast
8:35 AM 51.8 °F 51.8 °F 100% 30.39 in 3.0 mi SSE 4.6 mph - N/A   Overcast
8:55 AM 51.8 °F 51.8 °F 100% 30.39 in 4.0 mi SE 5.8 mph - N/A   Overcast
9:15 AM 51.8 °F 51.8 °F 100% 30.40 in 4.0 mi SSE 4.6 mph - N/A   Overcast
9:35 AM 53.6 °F 53.6 °F 100% 30.40 in 3.0 mi SE 3.5 mph - N/A   Overcast
9:55 AM 53.6 °F 53.6 °F 100% 30.40 in 3.0 mi SE 4.6 mph - N/A   Overcast
10:15 AM 53.6 °F 53.6 °F 100% 30.40 in 3.0 mi SE 3.5 mph - N/A   Overcast
10:35 AM 53.6 °F 53.6 °F 100% 30.39 in 4.0 mi Calm Calm - N/A   Overcast
10:55 AM 53.6 °F 53.6 °F 100% 30.39 in 5.0 mi SSE 5.8 mph - N/A   Overcast
11:15 AM 55.4 °F 55.4 °F 100% 30.37 in 6.0 mi SE 5.8 mph - N/A   Mostly Cloudy
11:35 AM 55.4 °F 55.4 °F 100% 30.36 in 8.0 mi SE 4.6 mph - N/A   Scattered Clouds
11:55 AM 57.2 °F 55.4 °F 94% 30.36 in 10.0 mi Calm Calm - N/A   Mostly Cloudy
12:15 PM 57.2 °F 55.4 °F 94% 30.35 in 10.0 mi Calm Calm - N/A   Overcast
12:35 PM 57.2 °F 55.4 °F 94% 30.35 in 10.0 mi Calm Calm - N/A   Overcast
12:55 PM 57.2 °F 55.4 °F 94% 30.35 in 10.0 mi Calm Calm - N/A   Overcast
1:15 PM 57.2 °F 55.4 °F 94% 30.36 in 9.0 mi Calm Calm - N/A   Overcast
1:35 PM 57.2 °F 55.4 °F 94% 30.36 in 10.0 mi North 3.5 mph - N/A   Overcast
1:55 PM 57.2 °F 55.4 °F 94% 30.36 in 10.0 mi Calm Calm - N/A   Overcast
2:15 PM 57.2 °F 55.4 °F 94% 30.37 in 1.5 mi NNE 3.5 mph - N/A   Overcast
2:35 PM 57.2 °F 55.4 °F 94% 30.37 in 3.0 mi East 3.5 mph - N/A   Overcast
2:55 PM 57.2 °F 55.4 °F 94% 30.37 in 2.0 mi ESE 4.6 mph - N/A   Overcast
3:15 PM 57.2 °F 57.2 °F 100% 30.36 in 5.0 mi ESE 5.8 mph - N/A   Overcast
3:35 PM 57.2 °F 57.2 °F 100% 30.36 in 5.0 mi ESE 4.6 mph - N/A   Overcast
3:55 PM 57.2 °F 57.2 °F 100% 30.35 in 7.0 mi East 3.5 mph - N/A   Overcast
4:15 PM 57.2 °F 55.4 °F 94% 30.35 in 10.0 mi ENE 4.6 mph - N/A   Overcast
4:35 PM 55.4 °F 55.4 °F 100% 30.35 in 10.0 mi ENE 3.5 mph - N/A   Overcast
4:55 PM 55.4 °F 55.4 °F 100% 30.35 in 10.0 mi Calm Calm - N/A   Overcast
5:15 PM 55.4 °F 55.4 °F 100% 30.36 in 10.0 mi Calm Calm - N/A   Overcast
5:35 PM 53.6 °F 53.6 °F 100% 30.36 in 4.0 mi North 3.5 mph - N/A   Mostly Cloudy
5:55 PM 55.4 °F 55.4 °F 100% 30.37 in 7.0 mi North 3.5 mph - N/A   Partly Cloudy
6:15 PM 55.4 °F 53.6 °F 94% 30.38 in 5.0 mi North 5.8 mph - N/A   Mostly Cloudy
6:35 PM 55.4 °F 55.4 °F 100% 30.39 in 6.0 mi NNE 4.6 mph - N/A   Overcast
6:55 PM 55.4 °F 53.6 °F 94% 30.40 in 9.0 mi NE 3.5 mph - N/A   Overcast
7:15 PM 55.4 °F 53.6 °F 94% 30.40 in 8.0 mi NE 5.8 mph - N/A   Overcast
7:35 PM 55.4 °F 53.6 °F 94% 30.41 in 6.0 mi ENE 3.5 mph - N/A   Overcast
7:55 PM 55.4 °F 53.6 °F 94% 30.41 in 5.0 mi ENE 4.6 mph - N/A   Overcast
8:15 PM 53.6 °F 53.6 °F 100% 30.40 in 5.0 mi ENE 5.8 mph - N/A   Mostly Cloudy
8:35 PM 53.6 °F 53.6 °F 100% 30.41 in 5.0 mi East 3.5 mph - N/A   Overcast
8:55 PM 55.4 °F 53.6 °F 94% 30.41 in 6.0 mi ENE 3.5 mph - N/A   Overcast
9:15 PM 53.6 °F 53.6 °F 100% 30.41 in 6.0 mi East 3.5 mph - N/A   Overcast
9:35 PM 53.6 °F 53.6 °F 100% 30.41 in 6.0 mi ENE 3.5 mph - N/A   Overcast
9:55 PM 53.6 °F 53.6 °F 100% 30.39 in 6.0 mi ENE 4.6 mph - N/A   Mostly Cloudy
10:15 PM 53.6 °F 53.6 °F 100% 30.38 in 8.0 mi East 5.8 mph - N/A   Overcast
10:35 PM 53.6 °F 53.6 °F 100% 30.39 in 8.0 mi East 4.6 mph - N/A   Overcast
10:55 PM 53.6 °F 53.6 °F 100% 30.39 in 7.0 mi East 3.5 mph - N/A   Overcast
11:15 PM 53.6 °F 53.6 °F 100% 30.39 in 8.0 mi ENE 4.6 mph - N/A   Overcast
11:35 PM 53.6 °F 53.6 °F 100% 30.40 in 8.0 mi Calm Calm - N/A   Overcast
11:55 PM 53.6 °F 53.6 °F 100% 30.39 in 8.0 mi Calm Calm - N/A   Overcast